Location: Natural Bridges National Monument
(37.6093°N, 109.9767°W)
Time: 22:44:11
(UTC-06:00)

Daily predictions for brighter satellites

Satellite Brightness Start Highest point End
(mag) Time Altitude Azimuth Time Altitude Azimuth Time Altitude Azimuth
Meteor 1-23 Rocket 4.3 20:11:51 10° N 20:17:26 59° E 20:23:04 10° SSE
Meteor 1-28 Rocket 4.3 20:17:49 10° N 20:21:31 52° WNW 20:25:12 10° SSW
CZ-2D R/B 4.2 20:18:18 10° SE 20:21:41 30° ENE 20:25:06 10° N
Cosmos 2208 Rocket 4.2 20:18:55 10° S 20:24:04 55° ESE 20:29:20 10° NNE
NOSS 3-4 (A) 4.1 20:17:19 10° NNW 20:24:15 57° NE 20:31:34 10° SE
NOSS 3-4 (C) 4.1 20:17:27 10° NNW 20:24:23 57° NE 20:31:41 10° SE
Hubble Space Telescope 2.7 20:22:05 10° SW 20:25:01 19° S 20:27:56 10° SE
Cosmos 1461 3.9 20:21:28 10° N 20:25:02 29° NE 20:28:29 10° ESE
Cosmos 1025 Rocket 3.1 20:21:27 10° N 20:25:50 87° W 20:30:09 10° S
FREGAT/IRIS 4.3 20:24:39 10° S 20:27:37 39° W 20:30:36 10° NNW
OAO 2 Rocket 3.7 20:22:53 10° WSW 20:27:41 48° SSE 20:32:35 10° E
Cosmos 1892 Rocket 3.7 20:24:35 10° N 20:29:02 61° E 20:33:27 10° SSE
FengYun 1-2 T 4.3 20:23:40 10° SSE 20:29:17 73° ENE 20:34:53 10° N
Spot 2 Rocket 3.8 20:24:43 10° S 20:29:48 76° WSW 20:34:54 10° NNW
Cosmos 1455 Rocket 3.2 20:27:33 10° SSE 20:31:44 51° E 20:35:57 10° NNE
Meteor 2-14 Rocket 4.4 20:26:30 10° S 20:32:35 71° E 20:38:43 10° NNE
CZ-4B DEB 2.8 20:31:49 10° SSE 20:35:03 66° ENE 20:38:20 10° N
FENGYUN 3A 3.8 20:31:16 10° SSE 20:36:30 56° ENE 20:41:43 10° N
Cosmos 2123 Rocket 4.1 20:30:43 10° N 20:36:45 53° E 20:42:44 10° SSE
Resurs 1-3 3.7 20:32:36 10° S 20:36:58 81° WSW 20:41:23 10° NNW
Cosmos 1570 Rocket 4.0 20:34:30 10° SSW 20:39:48 85° ESE 20:45:06 10° NNE
Cosmos 1346 Rocket 2.9 20:36:16 10° N 20:40:09 53° E 20:44:03 10° SSE
Cosmos 1656 4.3 20:35:11 10° SSE 20:40:10 33° ESE 20:45:07 10° NE
Cosmos 2227 Rocket 2.5 20:35:05 10° N 20:40:35 49° ENE 20:46:02 10° SE
Cosmos 1536 4.4 20:40:16 10° SSW 20:44:01 39° W 20:47:49 10° N
ALOS 2.2 20:43:48 10° SSE 20:48:28 77° ENE 20:53:08 10° N
Iridium 4 Rocket 4.1 20:45:47 10° NNE 20:50:18 32° E 20:54:06 12° SE
Meteor 1-5 Rocket 4.2 20:45:42 10° S 20:51:00 84° W 20:56:29 10° N
NOSS 7 (H) 4.2 20:49:36 10° SSW 20:52:58 82° ESE 20:56:19 10° NE
Cosmos 2082 3.8 20:49:21 10° NNW 20:54:56 60° ENE 21:00:00 12° SE
RESURS DK-1 4.4 20:54:00 10° NNE 20:56:00 13° NE 20:57:19 12° ENE
Cosmos 2297 Rocket 2.6 20:50:35 10° N 20:56:02 47° ENE 21:00:22 16° SE
Resurs 01 Rocket 3.3 20:52:40 10° SSW 20:56:43 36° W 21:00:50 10° NNW
USA 186 1.6 20:53:43 10° SSE 20:56:54 66° ENE 20:59:52 10° N
Cosmos 1934 Rocket 4.3 20:57:23 10° SSW 21:03:28 69° W 21:09:41 10° N
Cosmos 1515 4.5 21:00:49 10° NNE 21:04:19 32° ENE 21:05:50 24° ESE
Delta 2 Rocket 4.4 20:58:56 10° W 21:04:29 54° SSW 21:07:51 21° SE
DELTA 2 R/B (1) 3.6 21:02:22 10° WNW 21:07:57 80° N 21:11:47 21° E
ERS-1 Rocket 3.4 21:07:57 19° SE 21:11:07 43° ENE 21:15:52 10° N
OTV 4 0.6 21:08:54 10° W 21:11:49 58° SSW 21:12:40 39° SE
Cosmos 1743 4.0 21:15:07 23° E 21:15:07 23° E 21:17:52 10° NE
Tiangong 1 2.6 21:15:40 10° WNW 21:18:27 29° N 21:19:53 20° NE
Cosmos 1898 Rocket 3.9 21:16:23 10° N 21:21:29 46° ENE 21:23:45 29° ESE
Cosmos 1763 Rocket 4.5 21:23:18 25° E 21:23:18 25° E 21:26:54 10° NE
Lacrosse 5 3.0 21:20:48 10° NNW 21:25:18 31° NE 21:27:19 23° ENE
BREEZE-M DEB (TANK) 3.9 21:26:52 10° NNW 21:28:44 18° NE 21:29:28 17° NE
Cosmos 1066 Rocket 4.3 21:24:10 10° N 21:29:45 58° ENE 21:32:46 28° SSE
Cosmos 1975 3.2 21:25:46 10° SSW 21:29:50 66° W 21:33:56 10° N
SPOT 5 3.8 21:30:12 30° E 21:31:10 32° ENE 21:35:28 10° N
Cosmos 1697 Rocket 2.6 21:25:54 10° SSW 21:31:31 70° ESE 21:37:08 10° NNE
Cosmos 2016 Rocket 4.4 21:31:45 30° SE 21:33:48 38° E 21:39:26 10° NNE
Cosmos 468 Rocket 3.8 21:31:40 10° SSW 21:36:47 79° ESE 21:41:55 10° NNE
Lacrosse 5 rocket 0.9 21:37:08 10° NW 21:40:50 74° SW 21:41:15 64° S
Cosmos 841 Rocket 4.2 21:45:13 34° ENE 21:45:13 34° ENE 21:49:05 10° NE
CZ-4 DEB 3.1 21:44:01 53° SW 21:44:23 58° W 21:47:30 10° NNW
Cosmos 1814 Rocket 3.9 21:40:51 10° SSW 21:46:11 81° ESE 21:51:31 10° NNE
Cosmos 2173 Rocket 3.9 21:40:49 14° S 21:46:17 70° E 21:52:35 10° NNE
Cosmos 1825 Rocket 3.7 21:45:24 10° N 21:49:38 51° ENE 21:49:38 51° ENE
Cosmos 972 Rocket 4.4 21:47:23 10° NNW 21:53:23 72° ENE 21:55:50 40° SSE
ARGOS 4.1 21:53:43 29° ENE 21:53:43 29° ENE 21:58:18 10° N
Cosmos 1980 Rocket 2.1 21:48:32 10° S 21:54:08 65° ESE 21:59:46 10° NNE
Cosmos 2100 Rocket 4.0 21:52:09 10° S 21:58:27 85° W 22:04:43 10° N
Cosmos 1953 Rocket 4.1 21:55:05 10° N 21:58:41 43° NE 21:58:41 43° NE
H-2A R/B 1.9 22:00:47 72° NE 22:00:47 72° NE 22:04:40 10° N
Cosmos 2061 Rocket 4.0 21:57:18 15° S 22:02:41 87° W 22:08:58 10° N
Cosmos 1939 Rocket 3.4 22:02:42 49° SW 22:03:28 58° W 22:07:35 10° NNW
Terra 4.1 22:06:58 13° NE 22:06:58 13° NE 22:07:59 10° NNE
Tsikada Rocket 4.5 22:02:06 10° N 22:08:09 42° ENE 22:08:19 42° E
MetOp-B 4.0 22:09:52 65° ESE 22:10:16 68° ENE 22:15:36 10° N
OAO 2 Rocket 3.4 22:07:15 10° W 22:11:59 65° SSW 22:11:59 65° SSW
deb Chang Zheng 4 4.0 22:11:33 10° N 22:15:59 63° WNW 22:16:53 50° SW
Cosmos 1758 Rocket 4.3 22:14:00 10° N 22:17:04 43° NNE 22:17:04 43° NNE
ASTEX 1 3.3 22:13:57 10° N 22:18:51 84° NE 22:18:51 84° NE
Envisat 3.6 22:17:39 39° SSW 22:19:08 52° W 22:24:06 10° NNW
Cosmos 2263 Rocket 4.0 22:20:24 10° NNE 22:23:33 18° NE 22:23:33 18° NE
Cosmos 2227 Rocket 4.3 22:20:07 10° NW 22:24:12 21° W 22:28:07 11° SW
Meteor 1-21 4.2 22:18:44 10° N 22:24:32 85° W 22:25:15 70° S
Cosmos 1937 Rocket 3.7 22:21:02 10° NNW 22:26:15 63° WSW 22:26:43 60° SW
Cosmos 2322 Rocket 3.9 22:29:50 20° NE 22:29:50 20° NE 22:31:38 10° NE
H-2A R/B 3.5 22:29:29 24° NE 22:29:29 24° NE 22:32:05 10° N
Cosmos 1340 4.2 22:25:53 10° NNW 22:28:13 34° NNW 22:28:13 34° NNW
Cosmos 1725 Rocket 3.8 22:32:31 79° ESE 22:32:37 79° E 22:38:51 10° N
RESURS DK-1 3.6 22:30:20 10° NNW 22:33:15 39° WNW 22:33:15 39° WNW
Cosmos 2360 4.2 22:35:00 76° WSW 22:35:23 81° WNW 22:41:09 10° NNE
Meteor 2-9 Rocket 4.3 22:37:49 69° N 22:37:49 69° N 22:42:35 10° N
Cosmos 2058 Rocket 4.3 22:40:43 38° N 22:40:43 38° N 22:43:35 10° N
Cosmos 2297 Rocket 4.2 22:35:29 10° NW 22:39:41 22° W 22:42:12 16° SW
Cosmos 990 Rocket 4.3 22:35:04 10° NNW 22:39:55 62° W 22:39:55 62° W
Cosmos 2098 Rocket 4.1 22:39:06 56° SSW 22:40:41 81° W 22:46:47 10° N
Cosmos 2227 4.3 22:39:26 10° NNW 22:44:38 73° NW 22:44:38 73° NW
SPOT 1/Viking Rocket 3.9 22:47:39 61° NNW 22:47:39 61° NNW 22:51:57 10° NNW
BREEZE-M DEB (TANK) 4.2 22:33:27 10° SW 22:48:17 88° NW 22:49:20 64° NE
Cosmos 2233 Rocket 4.4 23:00:28 53° NNE 23:00:28 53° NNE 23:05:09 10° N
Milstar 3 Cent rocket 4.1 22:45:35 10° W 23:02:08 47° SSW 23:03:04 46° S
Lacrosse 5 3.4 23:03:35 10° NW 23:06:31 31° WNW 23:06:31 31° WNW
SL-16 R/B 3.6 23:24:36 32° N 23:24:36 32° N 23:27:39 10° NNE
USA 215 3.7 23:35:05 58° NNW 23:35:05 58° NNW 23:40:18 10° NW
Terra 4.2 23:45:51 21° NNW 23:45:51 21° NNW 23:47:26 10° NNW
